Hourly Weather Angren

Today, 31 July, Saturday

Time Temperature Precipitation Wind Pressure Humidity
00:00 +23°C° 0 mm 1 mps 676 mmHg 33%
01:00 +23°C° 0 mm 1 mps 676 mmHg 33%
02:00 +23°C° 0 mm 1 mps 676 mmHg 33%
03:00 +23°C° 0 mm 1 mps 676 mmHg 33%
04:00 +23°C° 0 mm 2 mps 676 mmHg 33%
05:00 +23°C° 0 mm 2 mps 676 mmHg 35%
06:00 +24°C° 0 mm 2 mps 676 mmHg 33%
07:00 +26°C° 0 mm 1 mps 676 mmHg 31%
08:00 +28°C° 0 mm 1 mps 677 mmHg 29%
09:00 +30°C° 0 mm 1 mps 677 mmHg 27%
10:00 +31°C° 0 mm 2 mps 677 mmHg 25%
11:00 +32°C° 0 mm 2 mps 677 mmHg 22%
12:00 +34°C° 0 mm 2 mps 677 mmHg 21%
13:00 +35°C° 0 mm 3 mps 676 mmHg 19%
14:00 +36°C° 0 mm 3 mps 676 mmHg 18%
15:00 +36°C° 0 mm 3 mps 676 mmHg 18%
16:00 +35°C° 0 mm 3 mps 676 mmHg 17%
17:00 +35°C° 0 mm 3 mps 676 mmHg 17%
18:00 +33°C° 0 mm 3 mps 676 mmHg 20%
19:00 +31°C° 0 mm 2 mps 676 mmHg 23%
20:00 +29°C° 0 mm 1 mps 675 mmHg 26%
21:00 +28°C° 0 mm 1 mps 675 mmHg 27%
22:00 +28°C° 0 mm 1 mps 675 mmHg 28%
23:00 +27°C° 0 mm 1 mps 675 mmHg 28%

Tomorrow, 1 August, Sunday

Time Temperature Precipitation Wind Pressure Humidity
00:00 +27°C° 0 mm 1 mps 675 mmHg 29%
01:00 +27°C° 0 mm 1 mps 674 mmHg 29%
02:00 +26°C° 0 mm 1 mps 674 mmHg 29%
03:00 +26°C° 0 mm 1 mps 674 mmHg 29%
04:00 +26°C° 0 mm 1 mps 674 mmHg 30%
05:00 +26°C° 0 mm 1 mps 674 mmHg 30%
06:00 +27°C° 0 mm 1 mps 675 mmHg 28%
07:00 +29°C° 0 mm 1 mps 675 mmHg 26%
08:00 +30°C° 0 mm 1 mps 675 mmHg 24%
09:00 +31°C° 0 mm 1 mps 675 mmHg 23%
10:00 +32°C° 0 mm 2 mps 675 mmHg 22%
11:00 +34°C° 0 mm 3 mps 675 mmHg 21%
12:00 +34°C° 0 mm 3 mps 675 mmHg 21%
13:00 +35°C° 0 mm 3 mps 675 mmHg 21%
14:00 +35°C° 0 mm 3 mps 675 mmHg 21%
15:00 +35°C° 0 mm 3 mps 674 mmHg 20%
16:00 +35°C° 0 mm 4 mps 674 mmHg 20%
17:00 +35°C° 0 mm 4 mps 674 mmHg 20%
18:00 +34°C° 0 mm 4 mps 674 mmHg 22%
19:00 +31°C° 0 mm 3 mps 674 mmHg 23%
20:00 +30°C° 0 mm 2 mps 674 mmHg 25%
21:00 +29°C° 0 mm 2 mps 674 mmHg 26%
22:00 +29°C° 0 mm 1 mps 674 mmHg 27%
23:00 +28°C° 0 mm 1 mps 674 mmHg 28%

Day after tomorrow, 2 August, Monday

Time Temperature Precipitation Wind Pressure Humidity
00:00 +28°C° 0 mm 2 mps 674 mmHg 29%
01:00 +28°C° 0 mm 2 mps 674 mmHg 30%
02:00 +28°C° 0 mm 3 mps 674 mmHg 31%
03:00 +27°C° 0.1 mm 3 mps 674 mmHg 35%
04:00 +26°C° 0.1 mm 3 mps 674 mmHg 39%
05:00 +26°C° 0.1 mm 2 mps 674 mmHg 43%
06:00 +27°C° 0 mm 2 mps 675 mmHg 39%
07:00 +28°C° 0 mm 2 mps 675 mmHg 36%
08:00 +29°C° 0 mm 2 mps 675 mmHg 33%
09:00 +31°C° 0 mm 2 mps 675 mmHg 30%
10:00 +32°C° 0 mm 2 mps 675 mmHg 27%
11:00 +34°C° 0 mm 2 mps 675 mmHg 24%
12:00 +35°C° 0 mm 2 mps 675 mmHg 23%
13:00 +35°C° 0 mm 3 mps 675 mmHg 21%
14:00 +36°C° 0 mm 4 mps 675 mmHg 20%
15:00 +36°C° 0 mm 4 mps 675 mmHg 20%
16:00 +36°C° 0 mm 5 mps 675 mmHg 19%
17:00 +36°C° 0 mm 5 mps 675 mmHg 19%
18:00 +34°C° 0 mm 4 mps 675 mmHg 22%
19:00 +31°C° 0 mm 3 mps 674 mmHg 25%
20:00 +30°C° 0 mm 2 mps 674 mmHg 28%
21:00 +29°C° 0 mm 1 mps 675 mmHg 29%
22:00 +28°C° 0 mm 1 mps 675 mmHg 30%
23:00 +28°C° 0 mm 1 mps 675 mmHg 32%

3 August, Tuesday

Time Temperature Precipitation Wind Pressure Humidity
00:00 +27°C° 0 mm 1 mps 675 mmHg 33%
01:00 +27°C° 0 mm 1 mps 674 mmHg 34%
02:00 +26°C° 0 mm 1 mps 674 mmHg 35%
03:00 +26°C° 0 mm 1 mps 674 mmHg 35%
04:00 +26°C° 0 mm 1 mps 674 mmHg 35%
05:00 +26°C° 0 mm 1 mps 674 mmHg 36%
06:00 +27°C° 0 mm 1 mps 675 mmHg 32%
07:00 +29°C° 0 mm 1 mps 676 mmHg 28%
08:00 +29°C° 0 mm 0 mps 676 mmHg 25%
09:00 +32°C° 0 mm 1 mps 676 mmHg 22%
10:00 +35°C° 0 mm 2 mps 676 mmHg 20%
11:00 +36°C° 0 mm 3 mps 677 mmHg 18%
12:00 +36°C° 0 mm 4 mps 676 mmHg 17%
13:00 +37°C° 0 mm 5 mps 676 mmHg 16%
14:00 +37°C° 0 mm 5 mps 676 mmHg 16%
15:00 +37°C° 0 mm 5 mps 676 mmHg 15%
16:00 +37°C° 0 mm 5 mps 676 mmHg 15%
17:00 +36°C° 0 mm 4 mps 676 mmHg 14%
18:00 +35°C° 0 mm 4 mps 676 mmHg 16%
19:00 +33°C° 0 mm 3 mps 676 mmHg 17%
20:00 +30°C° 0 mm 2 mps 676 mmHg 19%
21:00 +30°C° 0 mm 2 mps 676 mmHg 20%
22:00 +29°C° 0 mm 1 mps 676 mmHg 21%
23:00 +29°C° 0 mm 1 mps 676 mmHg 22%

4 August, Wednesday

Time Temperature Precipitation Wind Pressure Humidity
00:00 +28°C° 0 mm 1 mps 676 mmHg 23%
01:00 +28°C° 0 mm 1 mps 676 mmHg 24%
02:00 +28°C° 0 mm 1 mps 676 mmHg 26%
03:00 +27°C° 0 mm 1 mps 676 mmHg 27%
04:00 +27°C° 0 mm 1 mps 676 mmHg 28%
05:00 +26°C° 0 mm 1 mps 676 mmHg 30%
06:00 +28°C° 0 mm 1 mps 677 mmHg 27%
07:00 +30°C° 0 mm 1 mps 677 mmHg 24%
08:00 +31°C° 0 mm 1 mps 678 mmHg 21%
09:00 +32°C° 0 mm 1 mps 678 mmHg 20%
10:00 +35°C° 0 mm 2 mps 678 mmHg 18%
11:00 +36°C° 0 mm 3 mps 678 mmHg 17%
12:00 +36°C° 0 mm 4 mps 678 mmHg 16%
13:00 +37°C° 0 mm 5 mps 678 mmHg 14%
14:00 +38°C° 0 mm 6 mps 678 mmHg 13%
15:00 +37°C° 0 mm 5 mps 678 mmHg 13%
16:00 +37°C° 0 mm 5 mps 678 mmHg 12%
17:00 +36°C° 0 mm 4 mps 678 mmHg 12%
18:00 +34°C° 0 mm 3 mps 677 mmHg 14%
19:00 +31°C° 0 mm 2 mps 677 mmHg 16%
20:00 +29°C° 0 mm 1 mps 677 mmHg 17%
21:00 +29°C° 0 mm 1 mps 677 mmHg 20%
22:00 +28°C° 0 mm 1 mps 677 mmHg 22%
23:00 +27°C° 0 mm 2 mps 677 mmHg 25%

5 August, Thursday

Time Temperature Precipitation Wind Pressure Humidity
00:00 +27°C° 0 mm 2 mps 677 mmHg 25%
01:00 +27°C° 0 mm 2 mps 676 mmHg 25%
02:00 +27°C° 0 mm 2 mps 676 mmHg 26%
03:00 +26°C° 0 mm 2 mps 676 mmHg 26%
04:00 +26°C° 0 mm 2 mps 676 mmHg 27%
05:00 +26°C° 0 mm 1 mps 676 mmHg 27%
06:00 +28°C° 0 mm 1 mps 677 mmHg 24%
07:00 +30°C° 0 mm 1 mps 677 mmHg 21%
08:00 +30°C° 0 mm 0 mps 677 mmHg 18%
09:00 +33°C° 0 mm 1 mps 677 mmHg 17%
10:00 +35°C° 0 mm 2 mps 677 mmHg 16%
11:00 +36°C° 0 mm 2 mps 677 mmHg 14%
12:00 +37°C° 0 mm 3 mps 677 mmHg 13%
13:00 +37°C° 0 mm 3 mps 677 mmHg 13%
14:00 +38°C° 0 mm 4 mps 677 mmHg 12%
15:00 +38°C° 0 mm 4 mps 677 mmHg 12%
16:00 +38°C° 0 mm 4 mps 676 mmHg 12%
17:00 +38°C° 0 mm 4 mps 676 mmHg 11%
18:00 +36°C° 0 mm 3 mps 676 mmHg 13%
19:00 +34°C° 0 mm 2 mps 676 mmHg 15%
20:00 +30°C° 0 mm 1 mps 675 mmHg 17%
21:00 +30°C° 0 mm 1 mps 675 mmHg 18%
22:00 +29°C° 0 mm 1 mps 675 mmHg 19%
23:00 +29°C° 0 mm 1 mps 675 mmHg 19%
Show more